VAG136 VTBS-VVNB

Flight info

Callsign VAG136
Flight time 1h 22m
Altitude 37000
Route ALBOS1F ALBOS R474 LAVOS/K0839F370 R474 MC MC3N
Aircraft A321/M-SDE3FGHIRWY/LB1

Departure

Time 2026-05-04 00:36
Airport Suvarnabhumi Airport (VTBS)

Arrival

Time 2026-05-04 01:58
Airport Noi Bai International Airport (VVNB)
Time Latitude Longitude Altitude Speed Heading
2026-05-04 00:29 13.68674 100.75241 13 ft 0 kts 104°
2026-05-04 00:29 13.68680 100.75217 13 ft 4 kts 104°
2026-05-04 00:30 13.68687 100.75190 14 ft 4 kts 109°
2026-05-04 00:30 13.68699 100.75167 14 ft 4 kts 149°
2026-05-04 00:30 13.68718 100.75166 14 ft 4 kts 194°
2026-05-04 00:30 13.68732 100.75170 13 ft 0 kts 194°
2026-05-04 00:32 13.68708 100.75164 15 ft 11 kts 194°
2026-05-04 00:32 13.68589 100.75163 13 ft 21 kts 138°
2026-05-04 00:32 13.68541 100.75308 13 ft 22 kts 103°
2026-05-04 00:33 13.68504 100.75464 13 ft 23 kts 104°
2026-05-04 00:33 13.68384 100.75704 13 ft 19 kts 185°
2026-05-04 00:33 13.68199 100.75659 13 ft 34 kts 194°
2026-05-04 00:34 13.67971 100.75597 13 ft 34 kts 194°
2026-05-04 00:34 13.67743 100.75539 13 ft 34 kts 194°
2026-05-04 00:34 13.67517 100.75480 13 ft 34 kts 195°
2026-05-04 00:34 13.67291 100.75419 13 ft 33 kts 194°
2026-05-04 00:35 13.67065 100.75361 13 ft 33 kts 194°
2026-05-04 00:35 13.66840 100.75301 12 ft 33 kts 194°
2026-05-04 00:35 13.66648 100.75286 13 ft 21 kts 128°
2026-05-04 00:35 13.66718 100.75398 13 ft 30 kts 41°
2026-05-04 00:36 13.67112 100.75564 13 ft 95 kts 14°
2026-05-04 00:36 13.67958 100.75785 12 ft 153 kts 14°
2026-05-04 00:36 13.69098 100.76082 390 ft 167 kts 15°
2026-05-04 00:36 13.70098 100.76344 1468 ft 143 kts 17°
2026-05-04 00:37 13.70741 100.76670 1686 ft 171 kts 41°
2026-05-04 00:37 13.71504 100.77642 2071 ft 178 kts 57°
2026-05-04 00:37 13.72229 100.78679 2543 ft 180 kts 53°
2026-05-04 00:37 13.72991 100.79718 2971 ft 185 kts 55°
2026-05-04 00:38 13.73755 100.80839 3225 ft 201 kts 56°
2026-05-04 00:38 13.74591 100.82084 3350 ft 222 kts 56°
2026-05-04 00:38 13.75511 100.83456 3480 ft 243 kts 56°
2026-05-04 00:38 13.76522 100.84966 3667 ft 267 kts 56°
2026-05-04 00:39 13.77596 100.86567 4269 ft 275 kts 56°
2026-05-04 00:39 13.78685 100.88191 5027 ft 276 kts 56°
2026-05-04 00:39 13.79779 100.89821 5824 ft 276 kts 56°
2026-05-04 00:39 13.80872 100.91446 6597 ft 277 kts 56°
2026-05-04 00:40 13.81974 100.93084 7298 ft 279 kts 56°
2026-05-04 00:40 13.83089 100.94737 7980 ft 282 kts 55°
2026-05-04 00:40 13.84449 100.96212 8634 ft 287 kts 39°
2026-05-04 00:40 13.86194 100.97236 9298 ft 292 kts 21°
2026-05-04 00:41 13.88185 100.97694 9935 ft 297 kts
2026-05-04 00:41 13.90313 100.97822 10180 ft 317 kts
2026-05-04 00:41 13.92596 100.97952 10303 ft 339 kts
2026-05-04 00:41 13.95027 100.98089 10421 ft 359 kts
2026-05-04 00:42 13.97591 100.98234 10550 ft 378 kts
2026-05-04 00:42 14.00274 100.98388 10748 ft 392 kts
2026-05-04 00:42 14.03019 100.98552 11193 ft 397 kts
2026-05-04 00:42 14.05789 100.98720 11712 ft 401 kts
2026-05-04 00:43 14.08591 100.98888 12255 ft 404 kts
2026-05-04 00:43 14.11372 100.99053 12802 ft 407 kts
2026-05-04 00:43 14.14207 100.99223 13350 ft 410 kts
2026-05-04 00:43 14.17072 100.99393 13862 ft 414 kts
2026-05-04 00:44 14.19960 100.99568 14338 ft 417 kts
2026-05-04 00:44 14.22866 100.99743 14823 ft 420 kts
2026-05-04 00:44 14.25794 100.99919 15316 ft 423 kts
2026-05-04 00:44 14.28746 101.00095 15788 ft 427 kts
2026-05-04 00:45 14.31719 101.00273 16261 ft 429 kts
2026-05-04 00:45 14.34716 101.00453 16714 ft 432 kts
2026-05-04 00:45 14.37734 101.00633 17147 ft 436 kts
2026-05-04 00:45 14.40773 101.00816 17558 ft 439 kts
2026-05-04 00:46 14.43833 101.00997 17987 ft 442 kts
2026-05-04 00:46 14.46908 101.01179 18388 ft 444 kts
2026-05-04 00:46 14.50000 101.01362 18730 ft 447 kts
2026-05-04 00:46 14.53117 101.01546 19075 ft 449 kts
2026-05-04 00:47 14.56242 101.01730 19439 ft 451 kts
2026-05-04 00:47 14.59389 101.01920 19786 ft 453 kts
2026-05-04 00:47 14.62504 101.02111 20118 ft 456 kts
2026-05-04 00:47 14.65674 101.02306 20453 ft 457 kts
2026-05-04 00:48 14.68858 101.02500 20786 ft 459 kts
2026-05-04 00:48 14.72055 101.02766 21097 ft 462 kts
2026-05-04 00:48 14.75204 101.03485 21404 ft 466 kts 16°
2026-05-04 00:48 14.78234 101.04710 21705 ft 469 kts 25°
2026-05-04 00:49 14.81169 101.06197 22015 ft 471 kts 25°
2026-05-04 00:49 14.84122 101.07689 22315 ft 474 kts 25°
2026-05-04 00:49 14.87095 101.09182 22616 ft 476 kts 25°
2026-05-04 00:49 14.90085 101.10678 22912 ft 478 kts 25°
2026-05-04 00:50 14.93084 101.12181 23200 ft 480 kts 25°
2026-05-04 00:50 14.96096 101.13693 23484 ft 482 kts 25°
2026-05-04 00:50 14.99118 101.15216 23725 ft 484 kts 25°
2026-05-04 00:50 15.02158 101.16752 23963 ft 486 kts 25°
2026-05-04 00:51 15.05199 101.18291 24210 ft 488 kts 25°
2026-05-04 00:51 15.08260 101.19839 24450 ft 490 kts 25°
2026-05-04 00:51 15.11335 101.21393 24696 ft 492 kts 25°
2026-05-04 00:51 15.14424 101.22955 24945 ft 494 kts 25°
2026-05-04 00:52 15.17520 101.24521 25181 ft 496 kts 25°
2026-05-04 00:52 15.20587 101.26069 25410 ft 498 kts 25°
2026-05-04 00:52 15.23708 101.27646 25643 ft 500 kts 25°
2026-05-04 00:52 15.26832 101.29225 25953 ft 499 kts 25°
2026-05-04 00:53 15.29955 101.30805 26289 ft 499 kts 25°
2026-05-04 00:53 15.33066 101.32381 26615 ft 498 kts 25°
2026-05-04 00:53 15.36176 101.33958 26952 ft 497 kts 24°
2026-05-04 00:53 15.39285 101.35534 27300 ft 496 kts 24°
2026-05-04 00:54 15.42381 101.37100 27645 ft 495 kts 24°
2026-05-04 00:54 15.45475 101.38663 27987 ft 494 kts 24°
2026-05-04 00:54 15.48560 101.40223 28312 ft 493 kts 24°
2026-05-04 00:54 15.51642 101.41784 28649 ft 493 kts 24°
2026-05-04 00:55 15.54724 101.43346 28978 ft 492 kts 24°
2026-05-04 00:55 15.57798 101.44904 29319 ft 492 kts 24°
2026-05-04 00:55 15.60831 101.46446 29669 ft 491 kts 24°
2026-05-04 00:55 15.63899 101.48008 30021 ft 490 kts 24°
2026-05-04 00:56 15.66961 101.49563 30308 ft 490 kts 24°
2026-05-04 00:56 15.70017 101.51118 30597 ft 489 kts 24°
2026-05-04 00:56 15.73072 101.52670 30915 ft 487 kts 24°
2026-05-04 00:56 15.76117 101.54218 31213 ft 487 kts 24°
2026-05-04 00:57 15.79161 101.55765 31503 ft 486 kts 24°
2026-05-04 00:57 15.82198 101.57309 31786 ft 486 kts 24°
2026-05-04 00:57 15.85245 101.58860 32081 ft 486 kts 24°
2026-05-04 00:57 15.88275 101.60402 32361 ft 485 kts 24°
2026-05-04 00:58 15.91313 101.61948 32646 ft 485 kts 24°
2026-05-04 00:58 15.94301 101.63467 32923 ft 485 kts 24°
2026-05-04 00:58 15.97331 101.65012 33202 ft 485 kts 24°
2026-05-04 00:58 16.00357 101.66561 33478 ft 484 kts 24°
2026-05-04 00:59 16.03384 101.68110 33777 ft 484 kts 24°
2026-05-04 00:59 16.06397 101.69652 34076 ft 483 kts 24°
2026-05-04 00:59 16.09410 101.71191 34342 ft 482 kts 24°
2026-05-04 00:59 16.12416 101.72722 34607 ft 481 kts 24°
2026-05-04 01:00 16.15416 101.74250 34880 ft 480 kts 24°
2026-05-04 01:00 16.18410 101.75776 35166 ft 479 kts 24°
2026-05-04 01:00 16.21398 101.77301 35442 ft 478 kts 24°
2026-05-04 01:00 16.24379 101.78823 35723 ft 477 kts 24°
2026-05-04 01:01 16.27358 101.80346 36001 ft 476 kts 24°
2026-05-04 01:01 16.30329 101.81866 36279 ft 474 kts 24°
2026-05-04 01:01 16.33284 101.83376 36559 ft 473 kts 24°
2026-05-04 01:01 16.36236 101.84886 36816 ft 472 kts 24°
2026-05-04 01:02 16.39194 101.86399 36961 ft 474 kts 25°
2026-05-04 01:02 16.45137 101.89446 36986 ft 477 kts 25°
2026-05-04 01:03 16.51095 101.92499 36983 ft 477 kts 25°
2026-05-04 01:03 16.57010 101.95533 36983 ft 477 kts 25°
2026-05-04 01:04 16.62966 101.98592 36984 ft 477 kts 23°
2026-05-04 01:04 16.69140 102.01115 36990 ft 476 kts 19°
2026-05-04 01:05 16.75339 102.03582 36993 ft 478 kts 19°
2026-05-04 01:05 16.81560 102.06068 36988 ft 479 kts 19°
2026-05-04 01:06 16.87792 102.08556 36995 ft 480 kts 19°
2026-05-04 01:06 16.94031 102.11034 37001 ft 480 kts 19°
2026-05-04 01:07 17.00242 102.13505 37006 ft 480 kts 19°
2026-05-04 01:07 17.06492 102.16006 37015 ft 481 kts 19°
2026-05-04 01:08 17.12741 102.18511 37014 ft 481 kts 19°
2026-05-04 01:08 17.19004 102.21018 37009 ft 482 kts 19°
2026-05-04 01:09 17.25268 102.23521 37005 ft 482 kts 19°
2026-05-04 01:09 17.31532 102.26028 37006 ft 482 kts 19°
2026-05-04 01:10 17.37797 102.28544 37015 ft 482 kts 19°
2026-05-04 01:10 17.44067 102.31066 37011 ft 482 kts 19°
2026-05-04 01:11 17.50333 102.33578 37000 ft 482 kts 19°
2026-05-04 01:11 17.56590 102.36082 36998 ft 481 kts 19°
2026-05-04 01:12 17.62811 102.38575 37001 ft 481 kts 19°
2026-05-04 01:12 17.69061 102.41100 37003 ft 481 kts 19°
2026-05-04 01:13 17.75310 102.43621 37017 ft 481 kts 18°
2026-05-04 01:13 17.81553 102.46139 37018 ft 480 kts 18°
2026-05-04 01:14 17.87788 102.48651 37022 ft 480 kts 18°
2026-05-04 01:14 17.94014 102.51182 37025 ft 480 kts 18°
2026-05-04 01:15 18.00211 102.53805 37020 ft 482 kts 24°
2026-05-04 01:15 18.05850 102.57654 37029 ft 485 kts 33°
2026-05-04 01:16 18.11347 102.61772 37019 ft 485 kts 33°
2026-05-04 01:16 18.16849 102.65888 37011 ft 485 kts 33°
2026-05-04 01:17 18.22353 102.70014 37006 ft 486 kts 33°
2026-05-04 01:17 18.27854 102.74147 36999 ft 486 kts 33°
2026-05-04 01:18 18.33352 102.78279 37004 ft 486 kts 33°
2026-05-04 01:18 18.38851 102.82423 37003 ft 486 kts 33°
2026-05-04 01:19 18.44348 102.86563 37012 ft 486 kts 33°
2026-05-04 01:19 18.49821 102.90681 37013 ft 486 kts 33°
2026-05-04 01:20 18.55325 102.94823 37030 ft 486 kts 33°
2026-05-04 01:20 18.60827 102.98970 37029 ft 486 kts 33°
2026-05-04 01:21 18.66328 103.03134 37055 ft 486 kts 33°
2026-05-04 01:21 18.71829 103.07298 37052 ft 486 kts 33°
2026-05-04 01:22 18.77329 103.11451 37048 ft 486 kts 33°
2026-05-04 01:22 18.82790 103.15580 37056 ft 486 kts 33°
2026-05-04 01:23 18.88296 103.19749 37053 ft 487 kts 33°
2026-05-04 01:23 18.93797 103.23928 37061 ft 487 kts 33°
2026-05-04 01:24 18.99303 103.28105 37072 ft 488 kts 33°
2026-05-04 01:24 19.04822 103.32293 37074 ft 488 kts 33°
2026-05-04 01:25 19.10344 103.36485 37071 ft 488 kts 33°
2026-05-04 01:25 19.14927 103.39971 37070 ft 489 kts 33°
2026-05-04 01:26 19.21335 103.44856 37081 ft 489 kts 33°
2026-05-04 01:26 19.25960 103.48386 37079 ft 489 kts 33°
2026-05-04 01:27 19.31452 103.52569 37085 ft 489 kts 33°
2026-05-04 01:27 19.36981 103.56797 37076 ft 491 kts 33°
2026-05-04 01:28 19.42515 103.61055 37078 ft 492 kts 33°
2026-05-04 01:28 19.48059 103.65321 37078 ft 492 kts 33°
2026-05-04 01:29 19.53603 103.69587 37062 ft 494 kts 33°
2026-05-04 01:29 19.59186 103.73887 37045 ft 496 kts 33°
2026-05-04 01:30 19.64756 103.78182 37054 ft 499 kts 33°
2026-05-04 01:30 19.70386 103.82515 37059 ft 501 kts 33°
2026-05-04 01:31 19.76032 103.86870 37064 ft 502 kts 33°
2026-05-04 01:31 19.81702 103.91250 37093 ft 504 kts 33°
2026-05-04 01:32 19.87386 103.95639 37101 ft 505 kts 33°
2026-05-04 01:32 19.93066 104.00039 37112 ft 506 kts 33°
2026-05-04 01:33 19.98759 104.04453 37108 ft 506 kts 33°
2026-05-04 01:33 20.04454 104.08864 37129 ft 507 kts 33°
2026-05-04 01:34 20.10162 104.13292 37139 ft 508 kts 33°
2026-05-04 01:34 20.15873 104.17726 37137 ft 508 kts 33°
2026-05-04 01:35 20.21546 104.22138 37147 ft 508 kts 33°
2026-05-04 01:35 20.27248 104.26581 37160 ft 508 kts 33°
2026-05-04 01:36 20.32962 104.31031 37137 ft 508 kts 33°
2026-05-04 01:36 20.38673 104.35480 37145 ft 508 kts 33°
2026-05-04 01:37 20.44386 104.39935 37156 ft 509 kts 33°
2026-05-04 01:37 20.50097 104.44392 37159 ft 509 kts 33°
2026-05-04 01:38 20.55804 104.48857 37162 ft 509 kts 33°
2026-05-04 01:38 20.61516 104.53328 37149 ft 509 kts 33°
2026-05-04 01:39 20.67180 104.57757 37166 ft 508 kts 33°
2026-05-04 01:39 20.72877 104.62225 37160 ft 508 kts 33°
2026-05-04 01:40 20.78533 104.66739 36848 ft 507 kts 38°
2026-05-04 01:40 20.81044 104.69395 36192 ft 510 kts 48°
2026-05-04 01:40 20.83138 104.72462 35504 ft 513 kts 57°
2026-05-04 01:40 20.84772 104.75865 34722 ft 518 kts 67°
2026-05-04 01:41 20.86024 104.79492 33887 ft 522 kts 69°
2026-05-04 01:41 20.87259 104.83163 32996 ft 525 kts 69°
2026-05-04 01:41 20.88500 104.86842 32139 ft 527 kts 70°
2026-05-04 01:41 20.89747 104.90533 31249 ft 529 kts 69°
2026-05-04 01:42 20.91000 104.94242 30399 ft 530 kts 70°
2026-05-04 01:42 20.92250 104.97949 29458 ft 529 kts 70°
2026-05-04 01:42 20.93498 105.01657 28655 ft 527 kts 70°
2026-05-04 01:42 20.94719 105.05284 28483 ft 511 kts 70°
2026-05-04 01:43 20.95926 105.08804 28358 ft 496 kts 69°
2026-05-04 01:43 20.97120 105.12202 28227 ft 481 kts 69°
2026-05-04 01:43 20.98298 105.15504 28097 ft 468 kts 69°
2026-05-04 01:43 20.99444 105.18707 27966 ft 455 kts 68°
2026-05-04 01:44 21.00555 105.21820 27830 ft 442 kts 68°
2026-05-04 01:44 21.01633 105.24830 27598 ft 436 kts 68°
2026-05-04 01:44 21.02784 105.27808 27283 ft 431 kts 65°
2026-05-04 01:44 21.03992 105.30730 26916 ft 427 kts 64°
2026-05-04 01:45 21.05227 105.33608 26566 ft 424 kts 64°
2026-05-04 01:45 21.06463 105.36468 26218 ft 421 kts 64°
2026-05-04 01:45 21.08871 105.42136 25416 ft 416 kts 65°
2026-05-04 01:46 21.10042 105.44952 25023 ft 414 kts 65°
2026-05-04 01:46 21.11204 105.47771 24615 ft 412 kts 65°
2026-05-04 01:46 21.12357 105.50580 24261 ft 410 kts 65°
2026-05-04 01:46 21.13504 105.53375 23942 ft 408 kts 65°
2026-05-04 01:47 21.14646 105.56150 23561 ft 406 kts 65°
2026-05-04 01:47 21.15781 105.58903 23120 ft 403 kts 65°
2026-05-04 01:47 21.16909 105.61636 22694 ft 400 kts 65°
2026-05-04 01:47 21.18031 105.64351 22273 ft 397 kts 65°
2026-05-04 01:48 21.19141 105.67039 21882 ft 393 kts 65°
2026-05-04 01:48 21.20241 105.69711 21479 ft 390 kts 65°
2026-05-04 01:48 21.21331 105.72360 21086 ft 387 kts 65°
2026-05-04 01:48 21.22411 105.74984 20691 ft 384 kts 65°
2026-05-04 01:49 21.23487 105.77596 20298 ft 381 kts 65°
2026-05-04 01:49 21.24538 105.80147 19918 ft 378 kts 65°
2026-05-04 01:49 21.25595 105.82721 19494 ft 376 kts 65°
2026-05-04 01:49 21.26668 105.85333 18614 ft 390 kts 65°
2026-05-04 01:50 21.27781 105.88043 17565 ft 404 kts 65°
2026-05-04 01:50 21.28797 105.90904 16469 ft 417 kts 77°
2026-05-04 01:50 21.28986 105.94039 15378 ft 428 kts 94°
2026-05-04 01:50 21.28477 105.97214 14307 ft 438 kts 106°
2026-05-04 01:51 21.27264 106.00218 13160 ft 442 kts 126°
2026-05-04 01:51 21.25099 106.02499 12343 ft 433 kts 150°
2026-05-04 01:51 21.22375 106.03686 11775 ft 418 kts 172°
2026-05-04 01:51 21.19526 106.03679 11129 ft 405 kts 194°
2026-05-04 01:52 21.16987 106.02512 10432 ft 395 kts 217°
2026-05-04 01:52 21.15146 106.00398 9725 ft 388 kts 240°
2026-05-04 01:52 21.14282 105.97698 8911 ft 384 kts 263°
2026-05-04 01:52 21.14511 105.94861 7910 ft 387 kts 287°
2026-05-04 01:53 21.15792 105.92338 7193 ft 384 kts 304°
2026-05-04 01:53 21.17315 105.90005 6505 ft 379 kts 305°
2026-05-04 01:53 21.18806 105.87771 6048 ft 367 kts 309°
2026-05-04 01:53 21.20690 105.86024 5673 ft 352 kts 330°
2026-05-04 01:54 21.22932 105.85161 5158 ft 333 kts 353°
2026-05-04 01:54 21.25142 105.85189 4589 ft 305 kts
2026-05-04 01:54 21.27102 105.85690 4247 ft 274 kts 32°
2026-05-04 01:54 21.28221 105.87168 4241 ft 254 kts 70°
2026-05-04 01:55 21.28218 105.89053 3870 ft 261 kts 109°
2026-05-04 01:55 21.27099 105.90583 3475 ft 271 kts 142°
2026-05-04 01:55 21.25307 105.91267 2910 ft 278 kts 174°
2026-05-04 01:55 21.23425 105.91162 2257 ft 264 kts 191°
2026-05-04 01:56 21.21714 105.90639 1549 ft 249 kts 199°
2026-05-04 01:56 21.20268 105.89876 1268 ft 215 kts 226°
2026-05-04 01:56 21.19741 105.88576 1149 ft 179 kts 273°
2026-05-04 01:56 21.19904 105.87368 1135 ft 148 kts 284°
2026-05-04 01:57 21.20198 105.86349 891 ft 147 kts 291°
2026-05-04 01:57 21.20556 105.85208 684 ft 162 kts 289°
2026-05-04 01:57 21.20885 105.84083 468 ft 153 kts 289°
2026-05-04 01:57 21.21198 105.83007 255 ft 152 kts 289°
2026-05-04 01:58 21.21506 105.81956 63 ft 143 kts 288°
2026-05-04 01:58 21.21773 105.81046 48 ft 109 kts 288°
2026-05-04 01:58 21.21944 105.80457 50 ft 60 kts 287°
2026-05-04 01:58 21.22030 105.80154 48 ft 35 kts 287°
2026-05-04 01:59 21.21970 105.80010 49 ft 23 kts 197°
2026-05-04 01:59 21.21841 105.79948 47 ft 18 kts 239°
2026-05-04 01:59 21.21856 105.79831 49 ft 22 kts 284°
2026-05-04 01:59 21.21907 105.79655 49 ft 25 kts 287°
2026-05-04 02:00 21.21950 105.79488 49 ft 17 kts 263°
2026-05-04 02:00 21.21873 105.79433 49 ft 2 kts 199°
2026-05-04 02:00 21.21867 105.79430 49 ft 0 kts 199°